STARLINK-11616, 63137

Orbit data source: Space-Track

STARLINK-11616, 63137 is a payload satellite owned by SpaceX/Seattle (US) in LEO that was launched on Mon, 03 Mar 2025 UTC via an FALCON 9 launch vehicle from the Air Force Eastern Test Range (AFETR). Payload-class satellites include a variety of spacecraft equipped with specific instruments for various scientific and technological missions. These include communications satellites like Starlink; space stations such as the ISS; scientific satellites like the Hubble; Earth observation satellites from companies like Planet Labs, Umbra, and HawkEye 360; GPS; miniature CubeSats for education and research; and military/defense satellites.

Loading next visibility...
Identifier
63137, 2025-043F
Orbit
LEO
Last TLE update
18 hours ago
Origin
Manufacturer
SpaceX/Seattle
Mission
Operational Commercial Communications
Bus & Motor
STARLINK V2M, Unknown motor
Mass
730 kg wet, ~700 kg dry
Launch date (UTC)
2025-03-03 (4 months ago)
Launch vehicle
FALCON 9
Launch site
Air Force Eastern Test Range (AFETR)
Object type
Payload
Rocket body
Debris
Shape & HBR
Box + 2 Pan, 29 m
Radar Cross Section
36.964 m², Large (>1 m²)

Expand to show TLE details & history

TLE from 18 hours ago
0 STARLINK-11616
1 63137U 25043F   25181.82320032  .00129519  00000-0  99565-3 0  9995
2 63137  42.9994 328.5699 0001372 291.5925  68.4797 15.70877516 19869
Epoch: 2025-06-30T19:45Z
TLE epoch observation values (Epoch: 2025-06-30T19:45:24.507Z)
Latitude
0.00002°
Longitude
113.09033°
Altitude
355.82 km
Speed
7.698 km/s
True Right ascension
21h 54m 16s
True Declination
0° 00' 00"
Sunlit
Object was in full shadow at epoch
Visualization orbit readout
Latitude
-4.86652°
Longitude
103.28675°
Altitude
355.861 km
Speed
7.697 km/s
Apparent Right ascension
18h 21m 39s
Apparent Declination
-35° 19' 10"
Sunlit
Object is in full shadow
Visualization observer readout
Local Sidereal Time
01:41:15
Azimuth
250.931° W
Elevation
-35.731°
Doppler factor
1
Orbital elements
Apogee altitude
359.294 km
Perigee altitude
357.445 km
Semi-major axis
6,736.507 km
Eccentricity
0.00014
Inclination
42.9994°
RAAN
328.5699°
Arg. of periapsis
291.5925°
True anomaly
Unknown
Mean anomaly
68.4797°
Eccentric anomaly
Unknown
Mean motion
3.92546 °/min
Orbital period
91.71 mins
BSTAR
0.00099565
Loading maneuver chart data...
Loading SW <> Apogee altitude chart data...
Loading historical data...
Loading historical data...
Loading historical data...
Loading historical data...
Loading historical data...
Loading historical data...
Loading historical data...

STARLINK-11616 Visibility forecast

Observer location: undefined°, undefined°

Span
Click to sort rows by Start time (UTC) header in descending order
Start Az.
Max El. time (UTC)
Max El. Az.
Max El.
End time (UTC)
End Az.
5 mins2025-07-01 14:20:12.981Z257.701° W2025-07-01 14:22:12.981Z305.851° NW43.958°2025-07-01 14:25:12.981Z70.424° E
4 mins2025-07-01 15:57:12.981Z301.139° NW2025-07-01 15:58:12.981Z334.41° NNW32.581°2025-07-01 16:01:12.981Z73.322° E
4 mins2025-07-01 17:33:12.981Z289.681° WNW2025-07-01 17:35:12.981Z97.91° ESE42.739°2025-07-01 17:37:12.981Z106.927° ESE
4 mins2025-07-02 13:12:12.981Z223.677° SW2025-07-02 13:13:12.981Z183.973° SSW38.537°2025-07-02 13:16:12.981Z77.768° E
|